Date String (YYYY-MM-DD hh:mm:ss) UTC,Instrument flags,Ambient pressure (hPa),Sample flow (lpm),Bypass flow (lpm),Sample temperature (°C),Ambient temperature (°C),ASC tube jacket temperature (°C),LED temperature (°C),Box temperature (°C),Sample RH (%),Span deviation,Mass concentration (μg/m³),Mass concentration (μg/m³),Mass concentration (μg/m³)
DateTimeUTC,F1_M11,P_M11,Q1_M11,Q2_M11,T1_M11,T2_M11,T3_M11,T4_M11,T5_M11,U1_M11,ZSPAN_M11,X0_M11,X2_M11,X1_M11
2022-03-19 11:00:00,,0826.5,5.00,0.00,22.6,21.7,00.0,31.6,24.4,08.4,0000.0,0005.53,0002.98,0001.90
2022-03-19 11:01:00,,0826.5,4.99,0.00,22.6,21.7,00.0,31.6,24.3,08.3,0000.0,0005.64,0003.02,0001.90
2022-03-19 11:02:00,,0826.5,5.00,0.00,22.6,21.7,00.0,31.6,24.3,08.3,0000.0,0005.80,0003.06,0001.89
2022-03-19 11:03:00,,0826.5,5.00,0.00,22.6,21.7,00.0,31.6,24.3,08.3,0000.0,0005.86,0003.11,0001.88
2022-03-19 11:04:00,,0826.5,5.00,0.00,22.6,21.7,00.0,31.6,24.3,08.2,0000.0,0005.74,0003.12,0001.87
2022-03-19 11:05:00,,0826.5,5.00,0.00,22.6,21.7,00.0,31.6,24.3,08.2,0000.0,0005.55,0003.11,0001.87
2022-03-19 11:06:00,,0826.5,5.00,0.00,22.6,21.7,00.0,31.6,24.4,08.3,0000.0,0005.43,0003.07,0001.84
2022-03-19 11:07:00,,0826.5,5.00,0.00,22.6,21.7,00.0,31.6,24.4,08.4,0000.0,0005.48,0003.08,0001.83
2022-03-19 11:08:00,,0826.5,5.00,0.00,22.6,21.7,00.0,31.6,24.4,08.4,0000.0,0005.33,0003.01,0001.82
2022-03-19 11:09:00,,0826.5,5.00,0.00,22.6,21.7,00.0,31.6,24.4,08.2,0000.0,0005.32,0002.99,0001.82
2022-03-19 11:10:00,,0826.4,5.00,0.00,22.6,21.7,00.0,31.6,24.4,08.2,0000.0,0005.19,0002.96,0001.81
2022-03-19 11:11:00,,0826.5,5.00,0.00,22.6,21.7,00.0,31.6,24.3,08.2,0000.0,0005.16,0002.96,0001.81
2022-03-19 11:12:00,,0826.5,5.00,0.00,22.6,21.7,00.0,31.6,24.3,08.2,0000.0,0004.95,0002.88,0001.81
2022-03-19 11:13:00,,0826.5,4.99,0.00,22.6,21.6,00.0,31.6,24.3,08.2,0000.0,0004.86,0002.86,0001.83
2022-03-19 11:14:00,,0826.5,5.00,0.00,22.6,21.6,00.0,31.6,24.3,08.1,0000.0,0004.85,0002.85,0001.84
2022-03-19 11:15:00,,0826.5,5.00,0.00,22.6,21.6,00.0,31.6,24.3,08.1,0000.0,0004.89,0002.87,0001.86
2022-03-19 11:16:00,,0826.5,5.00,0.00,22.6,21.6,00.0,31.6,24.3,08.2,0000.0,0004.98,0002.91,0001.85
2022-03-19 11:17:00,,0826.4,5.00,0.00,22.6,21.6,00.0,31.6,24.3,08.2,0000.0,0004.92,0002.90,0001.87
2022-03-19 11:18:00,,0826.5,5.00,0.00,22.6,21.6,00.0,31.6,24.3,08.2,0000.0,0004.84,0002.87,0001.88
2022-03-19 11:19:00,,0826.5,5.00,0.00,22.6,21.6,00.0,31.6,24.3,08.2,0000.0,0004.86,0002.88,0001.90
2022-03-19 11:20:00,,0826.5,5.01,0.00,22.6,21.6,00.0,31.5,24.3,08.4,0000.0,0005.19,0003.00,0001.91
2022-03-19 11:21:00,,0826.5,4.99,0.00,22.5,21.6,00.0,31.5,24.3,08.4,0000.0,0005.29,0003.04,0001.93
2022-03-19 11:22:00,,0826.5,5.00,0.00,22.5,21.6,00.0,31.5,24.3,08.4,0000.0,0005.21,0003.04,0001.93
2022-03-19 11:23:00,,0826.5,5.00,0.00,22.5,21.6,00.0,31.5,24.3,08.4,0000.0,0005.02,0002.98,0001.93
2022-03-19 11:24:00,,0826.5,5.00,0.00,22.5,21.6,00.0,31.5,24.3,08.4,0000.0,0005.08,0003.01,0001.92
2022-03-19 11:25:00,,0826.5,4.99,0.00,22.5,21.6,00.0,31.5,24.3,08.4,0000.0,0004.93,0002.97,0001.92
2022-03-19 11:26:00,,0826.5,5.00,0.00,22.5,21.6,00.0,31.5,24.3,08.3,0000.0,0005.05,0002.97,0001.92
2022-03-19 11:27:00,,0826.4,5.00,0.00,22.5,21.7,00.0,31.5,24.3,08.3,0000.0,0004.97,0002.89,0001.92
2022-03-19 11:28:00,,0826.5,5.01,0.00,22.6,22.3,00.0,31.5,24.4,08.2,0000.0,0005.05,0002.91,0001.92
2022-03-19 11:29:00,,0826.5,5.00,0.00,22.7,23.1,00.0,31.6,24.7,08.2,0000.0,0005.10,0002.93,0001.92
2022-03-19 11:30:00,,0826.5,4.99,0.00,22.8,23.1,00.0,31.6,24.8,08.2,0000.0,0005.22,0002.93,0001.92
2022-03-19 11:31:00,,0826.5,5.01,0.00,22.8,22.9,00.0,31.6,24.7,08.2,0000.0,0005.64,0002.87,0001.92
2022-03-19 11:32:00,,0826.5,4.99,0.00,22.8,22.7,00.0,31.6,24.7,08.3,0000.0,0005.49,0002.82,0001.93
2022-03-19 11:33:00,,0826.5,5.01,0.00,22.8,22.6,00.0,31.7,24.7,08.3,0000.0,0005.48,0002.81,0001.93
2022-03-19 11:34:00,,0826.5,5.01,0.00,22.8,22.5,00.0,31.7,24.7,08.3,0000.0,0005.59,0002.83,0001.93
2022-03-19 11:35:00,,0826.5,5.00,0.00,22.8,22.4,00.0,31.7,24.7,08.3,0000.0,0005.52,0002.79,0001.93
2022-03-19 11:36:00,,0826.5,5.00,0.00,22.8,22.3,00.0,31.7,24.7,08.3,0000.0,0005.62,0002.78,0001.92
2022-03-19 11:37:00,,0826.5,5.00,0.00,22.8,22.2,00.0,31.7,24.7,08.3,0000.0,0005.47,0002.74,0001.91
2022-03-19 11:38:00,,0826.5,5.00,0.00,22.9,22.2,00.0,31.7,24.7,08.3,0000.0,0005.32,0002.75,0001.91
2022-03-19 11:39:00,,0826.5,5.00,0.00,22.9,22.1,00.0,31.7,24.7,08.3,0000.0,0005.29,0002.73,0001.91
2022-03-19 11:40:00,,0826.5,5.00,0.00,22.8,22.1,00.0,31.7,24.7,08.2,0000.0,0005.39,0002.75,0001.91
2022-03-19 11:41:00,,0826.5,5.00,0.00,22.8,22.1,00.0,31.7,24.7,08.2,0000.0,0005.53,0002.78,0001.91
2022-03-19 11:42:00,,0826.5,5.00,0.00,22.8,22.0,00.0,31.7,24.7,08.2,0000.0,0005.15,0002.81,0001.91
2022-03-19 11:43:00,,0826.5,5.00,0.00,22.8,22.0,00.0,31.7,24.7,08.3,0000.0,0005.54,0002.87,0001.90
2022-03-19 11:44:00,,0826.6,5.00,0.00,22.8,22.0,00.0,31.7,24.6,08.3,0000.0,0005.64,0002.88,0001.89
2022-03-19 11:45:00,,0826.6,5.01,0.00,22.8,22.0,00.0,31.7,24.6,08.3,0000.0,0005.84,0002.94,0001.89
2022-03-19 11:46:00,,0826.6,5.01,0.00,22.8,21.9,00.0,31.7,24.6,08.2,0000.0,0006.29,0002.96,0001.89
2022-03-19 11:47:00,,0826.6,5.00,0.00,22.8,21.9,00.0,31.7,24.5,08.3,0000.0,0006.85,0003.03,0001.91
2022-03-19 11:48:00,,0826.6,5.00,0.00,22.8,21.9,00.0,31.7,24.5,08.3,0000.0,0006.96,0003.06,0001.91
2022-03-19 11:49:00,,0826.6,4.99,0.00,22.7,21.8,00.0,31.7,24.5,08.3,0000.0,0007.20,0003.12,0001.93
2022-03-19 11:50:00,,0826.6,5.00,0.00,22.7,21.8,00.0,31.7,24.5,08.4,0000.0,0007.41,0003.17,0001.94
2022-03-19 11:51:00,,0826.6,5.01,0.00,22.7,21.8,00.0,31.7,24.5,08.4,0000.0,0007.37,0003.16,0001.93
2022-03-19 11:52:00,,0826.6,5.00,0.00,22.7,21.8,00.0,31.7,24.5,08.3,0000.0,0007.28,0003.17,0001.92
2022-03-19 11:53:00,,0826.6,5.00,0.00,22.7,21.8,00.0,31.7,24.5,08.5,0000.0,0006.98,0003.15,0001.90
2022-03-19 11:54:00,,0826.6,5.00,0.00,22.7,21.8,00.0,31.7,24.4,08.5,0000.0,0006.55,0003.12,0001.90
2022-03-19 11:55:00,,0826.6,4.99,0.00,22.7,21.8,00.0,31.7,24.5,08.3,0000.0,0006.57,0003.09,0001.89
2022-03-19 11:56:00,,0826.6,5.00,0.00,22.7,21.8,00.0,31.7,24.5,08.3,0000.0,0006.49,0003.02,0001.88
2022-03-19 11:57:00,,0826.6,5.00,0.00,22.7,21.8,00.0,31.7,24.5,08.2,0000.0,0006.14,0003.02,0001.87
2022-03-19 11:58:00,,0826.6,5.00,0.00,22.7,21.8,00.0,31.7,24.5,08.2,0000.0,0006.08,0003.02,0001.86
2022-03-19 11:59:00,,0826.6,5.00,0.00,22.7,21.8,00.0,31.7,24.5,08.2,0000.0,0006.14,0003.04,0001.86
